Location: Krakow
(50.0830°N, 19.9170°E)
Time: 11:24:42
(UTC+02:00)

A-11 Canister half - Pass Details

Date: 21 March 2026
Orbit: 1523 x 1684 km, 47.3° (Epoch: 16 April)

Event Time Altitude Azimuth Distance (km) Brightness Sun altitude
Rises 13:03:01 0° 286° (WNW) 4,831 11.7 37.7°
Reaches altitude 10° 13:06:17 10° 281° (W) 3,821 11.3 37.5°
Maximum altitude 13:15:25 50° 210° (SSW) 1,928 11.7 36.9°
Drops below altitude 10° 13:24:17 10° 139° (SE) 3,704 11.3 36.2°
Sets 13:27:24 0° 134° (SE) 4,673 11.7 35.9°
